Time,TemperatureF,DewpointF,PressureIn,WindDirection,WindDirectionDegrees,WindSpeedMPH,WindSpeedGustMPH,Humidity,HourlyPrecipIn,Conditions,Clouds,dailyrainin,SoftwareType,DateUTC
2013-05-12 00:03:00,-999.0,-99.9,29.91,NW,316,0.0,4.0,92,0.00,,,0.03,,2013-05-12 04:03:00,
2013-05-12 00:12:00,37.0,35.0,29.91,NW,316,0.0,4.0,92,0.00,,,0.03,,2013-05-12 04:12:00,
2013-05-12 00:22:00,38.0,35.0,29.90,West,272,0.0,8.0,90,0.00,,,0.03,,2013-05-12 04:22:00,
2013-05-12 00:33:00,38.0,34.0,29.91,NW,316,0.0,3.0,86,0.00,,,0.03,,2013-05-12 04:33:00,
2013-05-12 00:43:00,38.0,34.0,29.91,NW,316,0.0,3.0,86,0.00,,,0.03,,2013-05-12 04:43:00,
2013-05-12 00:52:00,38.0,33.0,29.91,West,267,2.0,5.0,83,0.00,,,0.03,,2013-05-12 04:52:00,
2013-05-12 01:02:00,39.0,33.0,29.90,NW,308,0.0,4.0,79,0.00,,,0.03,,2013-05-12 05:02:00,
2013-05-12 01:12:00,39.0,33.0,29.90,NW,308,0.0,4.0,79,0.00,,,0.03,,2013-05-12 05:12:00,
2013-05-12 01:22:00,39.0,31.0,29.90,NNE,14,1.0,8.0,73,0.00,,,0.03,,2013-05-12 05:22:00,
2013-05-12 01:32:00,39.0,31.0,29.91,NE,40,0.0,8.0,72,0.01,,,0.04,,2013-05-12 05:32:00,
2013-05-12 01:42:00,39.0,31.0,29.91,NE,40,0.0,8.0,72,0.01,,,0.04,,2013-05-12 05:42:00,
2013-05-12 01:52:00,39.0,31.0,29.90,West,278,0.0,4.0,74,0.01,,,0.04,,2013-05-12 05:52:00,
2013-05-12 02:02:00,39.0,32.0,29.90,West,279,0.0,2.0,76,0.01,,,0.04,,2013-05-12 06:02:00,
2013-05-12 02:11:00,39.0,32.0,29.90,West,279,0.0,2.0,76,0.01,,,0.04,,2013-05-12 06:11:00,
2013-05-12 02:21:00,39.0,33.0,29.91,NNE,29,1.0,8.0,78,0.01,,,0.04,,2013-05-12 06:21:00,
2013-05-12 02:32:00,39.0,33.0,29.90,WNW,293,0.0,8.0,79,0.00,,,0.04,,2013-05-12 06:32:00,
2013-05-12 02:42:00,38.0,32.0,29.90,NW,309,3.0,5.0,79,0.00,,,0.04,,2013-05-12 06:42:00,
2013-05-12 02:52:00,38.0,32.0,29.90,NW,309,3.0,5.0,79,0.00,,,0.04,,2013-05-12 06:52:00,
2013-05-12 03:01:00,38.0,32.0,29.91,NW,319,0.0,2.0,80,0.00,,,0.04,,2013-05-12 07:01:00,
2013-05-12 03:11:00,38.0,32.0,29.91,NW,319,0.0,2.0,80,0.00,,,0.04,,2013-05-12 07:11:00,
2013-05-12 03:21:00,38.0,32.0,29.90,North,5,4.0,9.0,78,0.00,,,0.04,,2013-05-12 07:21:00,
2013-05-12 03:32:00,38.0,31.0,29.90,NNE,33,4.0,10.0,75,0.00,,,0.04,,2013-05-12 07:32:00,
2013-05-12 03:42:00,38.0,31.0,29.90,NNE,33,4.0,10.0,75,0.00,,,0.04,,2013-05-12 07:42:00,
2013-05-12 03:52:00,38.0,31.0,29.90,WNW,296,3.0,9.0,75,0.00,,,0.04,,2013-05-12 07:52:00,
2013-05-12 04:02:00,38.0,31.0,29.90,NW,325,4.0,8.0,77,0.00,,,0.04,,2013-05-12 08:02:00,
2013-05-12 04:11:00,38.0,31.0,29.90,NW,325,4.0,8.0,77,0.00,,,0.04,,2013-05-12 08:11:00,
2013-05-12 04:21:00,38.0,31.0,29.90,West,261,6.0,11.0,77,0.00,,,0.04,,2013-05-12 08:21:00,
2013-05-12 04:32:00,38.0,30.0,29.91,NNE,25,5.0,10.0,73,0.00,,,0.04,,2013-05-12 08:32:00,
2013-05-12 04:42:00,38.0,30.0,29.91,NNE,25,5.0,10.0,73,0.00,,,0.04,,2013-05-12 08:42:00,
2013-05-12 04:52:00,38.0,30.0,29.90,NW,326,3.0,10.0,73,0.00,,,0.04,,2013-05-12 08:52:00,
2013-05-12 05:01:00,38.0,30.0,29.91,NNW,347,0.0,11.0,73,0.00,,,0.04,,2013-05-12 09:01:00,
2013-05-12 05:11:00,38.0,30.0,29.91,NNW,347,0.0,11.0,73,0.00,,,0.04,,2013-05-12 09:11:00,
2013-05-12 05:21:00,38.0,31.0,29.91,South,190,1.0,4.0,75,0.00,,,0.04,,2013-05-12 09:21:00,
2013-05-12 05:33:00,38.0,31.0,29.91,ENE,59,1.0,6.0,77,0.00,,,0.04,,2013-05-12 09:33:00,
2013-05-12 05:43:00,38.0,31.0,29.91,ENE,59,1.0,6.0,77,0.00,,,0.04,,2013-05-12 09:43:00,
2013-05-12 05:53:00,38.0,31.0,29.91,North,360,1.0,6.0,75,0.00,,,0.04,,2013-05-12 09:53:00,
2013-05-12 06:03:00,38.0,30.0,29.92,NNE,26,3.0,16.0,73,0.00,,,0.04,,2013-05-12 10:03:00,
2013-05-12 06:12:00,38.0,30.0,29.92,NNE,26,3.0,16.0,73,0.00,,,0.04,,2013-05-12 10:12:00,
2013-05-12 06:22:00,38.0,30.0,29.93,North,355,3.0,13.0,72,0.00,,,0.04,,2013-05-12 10:22:00,
2013-05-12 06:33:00,38.0,30.0,29.93,NNE,22,1.0,10.0,72,0.00,,,0.04,,2013-05-12 10:33:00,
2013-05-12 06:42:00,38.0,30.0,29.93,NNE,22,1.0,10.0,72,0.00,,,0.04,,2013-05-12 10:42:00,
2013-05-12 06:52:00,37.0,29.0,29.93,NW,326,1.0,18.0,72,0.00,,,0.04,,2013-05-12 10:52:00,
2013-05-12 07:02:00,37.0,29.0,29.93,NW,319,2.0,10.0,73,0.00,,,0.04,,2013-05-12 11:02:00,
2013-05-12 07:12:00,37.0,29.0,29.93,NW,319,2.0,10.0,73,0.00,,,0.04,,2013-05-12 11:12:00,
2013-05-12 07:22:00,38.0,30.0,29.93,ENE,64,3.0,10.0,74,0.00,,,0.04,,2013-05-12 11:22:00,
2013-05-12 07:32:00,38.0,30.0,29.93,ENE,59,2.0,7.0,74,0.00,,,0.04,,2013-05-12 11:32:00,
2013-05-12 07:42:00,38.0,30.0,29.94,ENE,65,1.0,7.0,74,0.00,,,0.04,,2013-05-12 11:42:00,
2013-05-12 07:52:00,38.0,30.0,29.94,ENE,65,1.0,7.0,74,0.00,,,0.04,,2013-05-12 11:52:00,
2013-05-12 08:02:00,38.0,31.0,29.94,ENE,74,1.0,11.0,75,0.00,,,0.04,,2013-05-12 12:02:00,
2013-05-12 08:11:00,38.0,31.0,29.94,ENE,74,1.0,11.0,75,0.00,,,0.04,,2013-05-12 12:11:00,
2013-05-12 08:21:00,38.0,31.0,29.95,WNW,301,3.0,10.0,75,0.00,,,0.04,,2013-05-12 12:21:00,
2013-05-12 08:32:00,38.0,31.0,29.96,NE,55,1.0,12.0,75,0.00,,,0.04,,2013-05-12 12:32:00,
2013-05-12 08:42:00,38.0,31.0,29.96,NE,55,1.0,12.0,75,0.00,,,0.04,,2013-05-12 12:42:00,
2013-05-12 08:52:00,38.0,31.0,29.96,NE,53,4.0,11.0,75,0.00,,,0.04,,2013-05-12 12:52:00,
2013-05-12 09:02:00,39.0,31.0,29.96,NW,315,4.0,8.0,74,0.00,,,0.04,,2013-05-12 13:02:00,
2013-05-12 09:11:00,39.0,31.0,29.96,NW,315,4.0,8.0,74,0.00,,,0.04,,2013-05-12 13:11:00,
2013-05-12 09:21:00,39.0,32.0,29.96,North,360,2.0,11.0,75,0.00,,,0.04,,2013-05-12 13:21:00,
2013-05-12 09:32:00,39.0,32.0,29.97,NE,39,2.0,10.0,75,0.00,,,0.04,,2013-05-12 13:32:00,
2013-05-12 09:42:00,39.0,32.0,29.97,NE,39,2.0,10.0,75,0.00,,,0.04,,2013-05-12 13:42:00,
2013-05-12 09:52:00,39.0,31.0,29.98,NW,309,4.0,13.0,74,0.00,,,0.04,,2013-05-12 13:52:00,
2013-05-12 10:01:00,40.0,32.0,29.98,NNE,24,7.0,12.0,72,0.00,,,0.04,,2013-05-12 14:01:00,
2013-05-12 10:11:00,40.0,32.0,29.98,NNE,24,7.0,12.0,72,0.00,,,0.04,,2013-05-12 14:11:00,
2013-05-12 10:21:00,40.0,31.0,29.98,NNE,15,2.0,11.0,70,0.00,,,0.04,,2013-05-12 14:21:00,
2013-05-12 10:32:00,39.0,31.0,29.98,North,350,2.0,14.0,72,0.00,,,0.04,,2013-05-12 14:32:00,
2013-05-12 10:42:00,40.0,31.0,29.99,NW,322,4.0,12.0,71,0.00,,,0.04,,2013-05-12 14:42:00,
2013-05-12 10:52:00,40.0,31.0,29.99,NW,322,4.0,12.0,71,0.00,,,0.04,,2013-05-12 14:52:00,
2013-05-12 11:01:00,40.0,32.0,29.99,NNW,338,3.0,10.0,72,0.00,,,0.04,,2013-05-12 15:01:00,
2013-05-12 11:11:00,40.0,32.0,29.99,NNW,338,3.0,10.0,72,0.00,,,0.04,,2013-05-12 15:11:00,
2013-05-12 11:21:00,40.0,32.0,30.00,North,350,2.0,11.0,72,0.00,,,0.04,,2013-05-12 15:21:00,
2013-05-12 11:34:00,40.0,31.0,30.00,NNE,19,1.0,9.0,69,0.00,,,0.04,,2013-05-12 15:34:00,
2013-05-12 11:42:00,40.0,31.0,30.00,NNE,19,1.0,9.0,69,0.00,,,0.04,,2013-05-12 15:42:00,
2013-05-12 11:52:00,40.0,31.0,30.01,ESE,111,2.0,17.0,69,0.00,,,0.04,,2013-05-12 15:52:00,
2013-05-12 12:02:00,39.0,29.0,30.01,NNW,337,5.0,12.0,68,0.00,,,0.04,,2013-05-12 16:02:00,
2013-05-12 12:13:00,39.0,29.0,30.01,NNW,337,5.0,12.0,68,0.00,,,0.04,,2013-05-12 16:13:00,
2013-05-12 12:23:00,39.0,29.0,30.02,NNE,23,10.0,13.0,67,0.00,,,0.04,,2013-05-12 16:23:00,
2013-05-12 12:33:00,39.0,30.0,30.03,NE,38,3.0,9.0,70,0.00,,,0.04,,2013-05-12 16:33:00,
2013-05-12 12:42:00,39.0,30.0,30.03,NE,38,3.0,9.0,70,0.00,,,0.04,,2013-05-12 16:42:00,
2013-05-12 12:52:00,39.0,28.0,30.03,NW,317,6.0,11.0,65,0.00,,,0.04,,2013-05-12 16:52:00,
2013-05-12 13:02:00,39.0,28.0,30.03,WNW,294,4.0,9.0,64,0.00,,,0.04,,2013-05-12 17:02:00,
2013-05-12 13:12:00,39.0,28.0,30.03,WNW,294,4.0,9.0,64,0.00,,,0.04,,2013-05-12 17:12:00,
2013-05-12 13:22:00,39.0,28.0,30.04,ENE,57,3.0,10.0,65,0.00,,,0.04,,2013-05-12 17:22:00,
2013-05-12 13:32:00,39.0,28.0,30.04,NNW,330,4.0,10.0,64,0.00,,,0.04,,2013-05-12 17:32:00,
2013-05-12 13:42:00,39.0,28.0,30.04,NNW,330,4.0,10.0,64,0.00,,,0.04,,2013-05-12 17:42:00,
2013-05-12 13:52:00,39.0,28.0,30.04,NE,53,4.0,11.0,64,0.00,,,0.04,,2013-05-12 17:52:00,
2013-05-12 14:01:00,39.0,28.0,30.04,WNW,296,1.0,10.0,65,0.00,,,0.04,,2013-05-12 18:01:00,
2013-05-12 14:12:00,39.0,28.0,30.04,WNW,296,1.0,10.0,65,0.00,,,0.04,,2013-05-12 18:12:00,
2013-05-12 14:22:00,39.0,28.0,30.05,North,5,5.0,12.0,64,0.00,,,0.04,,2013-05-12 18:22:00,
2013-05-12 14:32:00,40.0,28.0,30.05,WNW,289,5.0,9.0,63,0.00,,,0.04,,2013-05-12 18:32:00,
2013-05-12 14:42:00,40.0,28.0,30.05,WNW,289,5.0,9.0,63,0.00,,,0.04,,2013-05-12 18:42:00,
2013-05-12 14:52:00,40.0,29.0,30.05,NW,319,1.0,14.0,64,0.00,,,0.04,,2013-05-12 18:52:00,
2013-05-12 15:01:00,40.0,26.0,30.05,West,274,3.0,14.0,58,0.00,,,0.02,,2013-05-12 19:01:00,
2013-05-12 15:11:00,40.0,26.0,30.05,West,274,3.0,14.0,58,0.00,,,0.02,,2013-05-12 19:11:00,
2013-05-12 15:22:00,40.0,26.0,30.05,North,11,5.0,11.0,58,0.00,,,0.02,,2013-05-12 19:22:00,
2013-05-12 15:32:00,41.0,27.0,30.05,NE,51,3.0,10.0,58,0.00,,,0.02,,2013-05-12 19:32:00,
2013-05-12 15:42:00,40.0,27.0,30.05,WSW,250,3.0,11.0,59,0.00,,,0.02,,2013-05-12 19:42:00,
2013-05-12 15:52:00,40.0,27.0,30.05,WSW,250,3.0,11.0,59,0.00,,,0.02,,2013-05-12 19:52:00,
2013-05-12 16:02:00,41.0,27.0,30.05,NNW,333,3.0,12.0,57,0.00,,,0.01,,2013-05-12 20:02:00,
2013-05-12 16:11:00,41.0,27.0,30.05,NNW,333,3.0,12.0,57,0.00,,,0.01,,2013-05-12 20:11:00,
2013-05-12 16:21:00,42.0,27.0,30.05,East,84,4.0,11.0,55,0.00,,,0.01,,2013-05-12 20:21:00,
2013-05-12 16:32:00,41.0,26.0,30.05,NE,39,4.0,15.0,54,0.00,,,0.01,,2013-05-12 20:32:00,
2013-05-12 16:42:00,41.0,26.0,30.05,NE,39,4.0,15.0,54,0.00,,,0.01,,2013-05-12 20:42:00,
2013-05-12 16:52:00,42.0,25.0,30.04,North,355,6.0,9.0,51,0.00,,,0.01,,2013-05-12 20:52:00,
2013-05-12 17:01:00,42.0,27.0,30.04,NE,56,0.0,8.0,55,0.00,,,0.01,,2013-05-12 21:01:00,
2013-05-12 17:11:00,42.0,27.0,30.04,NE,56,0.0,8.0,55,0.00,,,0.01,,2013-05-12 21:11:00,
2013-05-12 17:21:00,43.0,27.0,30.04,North,11,3.0,7.0,52,0.00,,,0.01,,2013-05-12 21:21:00,
2013-05-12 17:33:00,43.0,27.0,30.04,NW,319,1.0,10.0,52,0.00,,,0.01,,2013-05-12 21:33:00,
2013-05-12 17:42:00,43.0,27.0,30.04,NW,319,1.0,10.0,52,0.00,,,0.01,,2013-05-12 21:42:00,
2013-05-12 17:53:00,44.0,27.0,30.04,WSW,249,3.0,10.0,51,0.00,,,0.01,,2013-05-12 21:53:00,
2013-05-12 18:02:00,45.0,28.0,30.04,NNE,24,7.0,10.0,52,0.00,,,0.01,,2013-05-12 22:02:00,
2013-05-12 18:12:00,45.0,28.0,30.04,NNE,24,7.0,10.0,52,0.00,,,0.01,,2013-05-12 22:12:00,
2013-05-12 18:23:00,44.0,27.0,30.05,West,267,3.0,15.0,51,0.00,,,0.01,,2013-05-12 22:23:00,
2013-05-12 18:33:00,44.0,26.0,30.05,NNW,339,8.0,12.0,48,0.00,,,0.01,,2013-05-12 22:33:00,
2013-05-12 18:42:00,44.0,26.0,30.05,NNW,339,8.0,12.0,48,0.00,,,0.01,,2013-05-12 22:42:00,
2013-05-12 18:52:00,44.0,27.0,30.06,NW,323,7.0,12.0,50,0.00,,,0.01,,2013-05-12 22:52:00,
2013-05-12 19:02:00,43.0,26.0,30.06,NNW,330,1.0,11.0,51,0.00,,,0.01,,2013-05-12 23:02:00,
2013-05-12 19:12:00,43.0,26.0,30.06,NNW,330,1.0,11.0,51,0.00,,,0.01,,2013-05-12 23:12:00,
2013-05-12 19:22:00,44.0,27.0,30.06,North,5,5.0,7.0,50,0.00,,,0.01,,2013-05-12 23:22:00,
2013-05-12 19:32:00,43.0,26.0,30.06,WNW,298,2.0,10.0,51,0.00,,,0.01,,2013-05-12 23:32:00,
2013-05-12 19:42:00,43.0,26.0,30.06,WNW,298,2.0,10.0,51,0.00,,,0.01,,2013-05-12 23:42:00,
2013-05-12 19:52:00,43.0,27.0,30.06,NE,46,1.0,3.0,52,0.00,,,0.01,,2013-05-12 23:52:00,
2013-05-12 20:01:00,43.0,27.0,30.06,ENE,61,2.0,9.0,52,0.00,,,0.01,,2013-05-13 00:01:00,
2013-05-12 20:11:00,43.0,27.0,30.06,ENE,61,2.0,9.0,52,0.00,,,0.01,,2013-05-13 00:11:00,
2013-05-12 20:22:00,43.0,27.0,30.06,ENE,78,0.0,3.0,53,0.00,,,0.01,,2013-05-13 00:22:00,
2013-05-12 20:32:00,42.0,27.0,30.06,ENE,67,0.0,3.0,56,0.00,,,0.01,,2013-05-13 00:32:00,
2013-05-12 20:42:00,42.0,27.0,30.06,ENE,67,0.0,3.0,56,0.00,,,0.01,,2013-05-13 00:42:00,
2013-05-12 20:52:00,42.0,27.0,30.06,NNE,26,2.0,5.0,56,0.00,,,0.01,,2013-05-13 00:52:00,
2013-05-12 21:01:00,41.0,26.0,30.07,NNE,19,0.0,4.0,54,0.00,,,0.01,,2013-05-13 01:01:00,
2013-05-12 21:11:00,41.0,26.0,30.07,NNE,19,0.0,4.0,54,0.00,,,0.01,,2013-05-13 01:11:00,
2013-05-12 21:22:00,41.0,27.0,30.07,NNE,23,0.0,2.0,57,0.00,,,0.01,,2013-05-13 01:22:00,
2013-05-12 21:32:00,40.0,27.0,30.07,NNE,23,0.0,1.0,60,0.00,,,0.01,,2013-05-13 01:32:00,
2013-05-12 21:42:00,40.0,27.0,30.07,NNE,23,0.0,1.0,60,0.00,,,0.01,,2013-05-13 01:42:00,
2013-05-12 21:52:00,39.0,28.0,30.08,NNE,23,0.0,0.0,64,0.00,,,0.01,,2013-05-13 01:52:00,
2013-05-12 22:02:00,38.0,29.0,30.08,NNE,23,0.0,0.0,69,0.00,,,0.01,,2013-05-13 02:02:00,
2013-05-12 22:11:00,38.0,29.0,30.08,NNE,23,0.0,0.0,69,0.00,,,0.01,,2013-05-13 02:11:00,
2013-05-12 22:21:00,37.0,28.0,30.09,NNE,23,0.0,0.0,69,0.00,,,0.01,,2013-05-13 02:21:00,
2013-05-12 22:32:00,36.0,29.0,30.10,NNE,23,0.0,0.0,74,0.00,,,0.01,,2013-05-13 02:32:00,
2013-05-12 22:42:00,36.0,29.0,30.10,NNE,23,0.0,0.0,74,0.00,,,0.01,,2013-05-13 02:42:00,
2013-05-12 22:51:00,36.0,29.0,30.10,NNE,23,0.0,0.0,75,0.00,,,0.01,,2013-05-13 02:51:00,
2013-05-12 23:02:00,35.0,28.0,30.11,NNE,23,0.0,0.0,76,0.00,,,0.01,,2013-05-13 03:02:00,
2013-05-12 23:11:00,35.0,28.0,30.11,NNE,23,0.0,0.0,76,0.00,,,0.01,,2013-05-13 03:11:00,
2013-05-12 23:21:00,34.0,28.0,30.11,NNE,23,0.0,0.0,79,0.00,,,0.01,,2013-05-13 03:21:00,
2013-05-12 23:32:00,34.0,28.0,30.12,NNE,23,0.0,0.0,80,0.00,,,0.01,,2013-05-13 03:32:00,
2013-05-12 23:42:00,34.0,28.0,30.12,NNE,23,0.0,0.0,80,0.00,,,0.01,,2013-05-13 03:42:00,
2013-05-12 23:52:00,33.0,28.0,30.12,NNE,23,0.0,0.0,82,0.00,,,0.01,,2013-05-13 03:52:00,